Showing default

FLOCK 4G 24, 62637

Orbit data source: Space-Track

FLOCK 4G 24, 62637 is a payload satellite owned by Planet (US) in SSO that was launched on Tue, 14 Jan 2025 UTC via an FALCON 9 launch vehicle from the Air Force Western Test Range (AFWTR). Payload-class satellites include a variety of spacecraft equipped with specific instruments for various scientific and technological missions. These include communications satellites like Starlink; space stations such as the ISS; scientific satellites like the Hubble; Earth observation satellites from companies like Planet Labs, Umbra, and HawkEye 360; GPS; miniature CubeSats for education and research; and military/defense satellites.

Loading next visibility...
Identifier
62637, 2025-009AE
Orbit
SSO
Country
Flag of USUS
Related business
Manufacturer
Planet
Mission
Operational Commercial Imaging
Bus & Motor
CUBESAT 3U, Unknown motor
Mass
5.7 kg wet, 5.7 kg dry
Launch date (UTC)
2025-01-14 (7 months ago)
Launch vehicle
FALCON 9
Launch site
Air Force Western Test Range (AFWTR)
Object type
Payload
Rocket body
Debris
Shape & HBR
Box + 2 Pan, 0.1 m
Radar Cross Section
0.035 m², Medium (>0.1 m² and < 1m²)

Expand to show TLE details & history
Last TLE update: 20 hours ago

TLE from 20 hours ago
0 FLOCK 4G 24
1 62637U 25009AE  25241.20865995  .00011912  00000-0  52202-3 0  9996
2 62637  97.4285 320.7301 0002563 221.4317 138.6725 15.22150171 34399
Epoch: 2025-08-29T05:00Z
TLE epoch observation values (Epoch: 2025-08-29T05:00:28.219Z)
Latitude
-0.00006°
Longitude
-92.04807°
Altitude
503.773 km
Speed
7.612 km/s
True Right ascension
21h 22m 55s
True Declination
0° 00' 00"
Sunlit
Object was in full shadow at epoch
Visualization orbit readout
Latitude
Unknown
Longitude
Unknown
Altitude
Unknown
Speed
Unknown
Apparent Right ascension
Unknown
Apparent Declination
Unknown
Sunlit
N/A
Visualization observer readout
Local Sidereal Time
16:56:57
Azimuth
Unknown
Elevation
Unknown
Doppler factor
Unknown
Orbital elements
Apogee altitude
498.082 km
Perigee altitude
494.558 km
Semi-major axis
6,874.457 km
Eccentricity
0.00026
Inclination
97.4285°
RAAN
320.7301°
Arg. of periapsis
221.4317°
True anomaly
138.69189°
Mean anomaly
138.6725°
Eccentric anomaly
138.6822°
Mean motion
3.8079 °/min
Orbital period
94.54 mins
BSTAR
0.00052202
Loading maneuver chart data...
Computing Atmospheric mass density...
Loading historical data...
Loading historical data...
Loading historical data...
Loading historical data...
Loading historical data...
Loading historical data...
Loading historical data...

Documentation

Showing up to 5 results
|